Terminal Aerodrome Forecast
Issued by NWS Northern Indiana

Home | Current Version | Previous Version | Graphics & Text | Print | Product List | Glossary On
Versions: 1 2 3 4 5 6 7 8 9 10 11 12 13 14 15 16 17 18
000
FTUS43 KIWX 161455 AAA
TAFFWA
TAF AMD
KFWA 161455Z 1615/1712 08004KT 3SM BR VCSH BKN015 OVC025
      TEMPO 1615/1617 1 1/2SM -RA BR SCT005 OVC010
     FM161700 11005KT 3SM BR VCSH OVC008
     FM162000 10006KT 3SM BR VCSH OVC003
     FM170100 11007KT 1/2SM RA FG OVC003 WS020/20045KT=

USA.gov is the U.S. government's official web portal to all federal, state and local government web resources and services.